Time,TemperatureF,DewpointF,PressureIn,WindDirection,WindDirectionDegrees,WindSpeedMPH,WindSpeedGustMPH,Humidity,HourlyPrecipIn,Conditions,Clouds,dailyrainin,SoftwareType,DateUTC
2013-01-23 00:00:00,41.3,22.1,30.19,NE,51,1.0,4.0,46,0.00,,SKC,0.00,VWS V14.01,2013-01-23 07:00:00,
2013-01-23 00:05:00,41.1,22.4,30.19,NE,44,2.0,2.0,47,0.00,,SKC,0.00,VWS V14.01,2013-01-23 07:05:00,
2013-01-23 00:10:00,41.0,22.3,30.19,NE,49,1.0,2.0,47,0.00,,SKC,0.00,VWS V14.01,2013-01-23 07:10:00,
2013-01-23 00:15:00,40.8,22.1,30.19,NE,46,2.0,2.0,47,0.00,,SKC,0.00,VWS V14.01,2013-01-23 07:15:00,
2013-01-23 00:20:00,40.6,22.5,30.19,NE,43,2.0,2.0,48,0.00,,SKC,0.00,VWS V14.01,2013-01-23 07:20:00,
2013-01-23 00:25:00,40.4,22.3,30.19,NE,40,1.0,3.0,48,0.00,,SKC,0.00,VWS V14.01,2013-01-23 07:25:00,
2013-01-23 00:30:00,40.3,22.2,30.19,ENE,74,2.0,2.0,48,0.00,,SKC,0.00,VWS V14.01,2013-01-23 07:30:00,
2013-01-23 00:35:00,40.2,22.6,30.19,NNE,33,2.0,2.0,49,0.00,,SKC,0.00,VWS V14.01,2013-01-23 07:35:00,
2013-01-23 00:40:00,39.9,22.3,30.20,NE,38,2.0,3.0,49,0.00,,SKC,0.00,VWS V14.01,2013-01-23 07:40:00,
2013-01-23 00:46:00,39.6,22.0,30.20,NE,37,1.0,3.0,49,0.00,,SKC,0.00,VWS V14.01,2013-01-23 07:46:00,
2013-01-23 00:51:00,39.1,23.0,30.20,NE,42,1.0,3.0,52,0.00,,SKC,0.00,VWS V14.01,2013-01-23 07:51:00,
2013-01-23 00:56:00,38.9,22.3,30.20,ENE,57,2.0,3.0,51,0.00,,SKC,0.00,VWS V14.01,2013-01-23 07:56:00,
2013-01-23 01:01:00,39.0,22.0,30.20,NE,51,0.0,1.0,50,0.00,,SKC,0.00,VWS V14.01,2013-01-23 08:01:00,
2013-01-23 01:06:00,38.8,22.2,30.20,NE,51,0.0,1.0,51,0.00,,SKC,0.00,VWS V14.01,2013-01-23 08:06:00,
2013-01-23 01:11:00,38.5,22.4,30.20,NE,54,0.0,1.0,52,0.00,,SKC,0.00,VWS V14.01,2013-01-23 08:11:00,
2013-01-23 01:17:00,37.7,21.7,30.20,NE,56,0.0,1.0,52,0.00,,SKC,0.00,VWS V14.01,2013-01-23 08:17:00,
2013-01-23 01:23:00,37.1,21.6,30.20,NE,56,0.0,1.0,53,0.00,,SKC,0.00,VWS V14.01,2013-01-23 08:23:00,
2013-01-23 01:28:00,36.5,21.5,30.20,SE,127,1.0,1.0,54,0.00,,SKC,0.00,VWS V14.01,2013-01-23 08:28:00,
2013-01-23 01:33:00,36.0,21.4,30.21,SE,129,0.0,1.0,55,0.00,,SKC,0.00,VWS V14.01,2013-01-23 08:33:00,
2013-01-23 01:38:00,35.5,21.4,30.21,SE,130,1.0,1.0,56,0.00,,SKC,0.00,VWS V14.01,2013-01-23 08:38:00,
2013-01-23 01:43:00,35.6,21.5,30.21,NE,51,2.0,2.0,56,0.00,,SKC,0.00,VWS V14.01,2013-01-23 08:43:00,
2013-01-23 01:48:00,35.6,21.9,30.21,NNE,25,2.0,3.0,57,0.00,,SKC,0.00,VWS V14.01,2013-01-23 08:48:00,
2013-01-23 01:53:00,35.0,21.7,30.21,NNE,22,1.0,3.0,58,0.00,,SKC,0.00,VWS V14.01,2013-01-23 08:53:00,
2013-01-23 01:58:00,35.1,22.2,30.21,NE,39,1.0,3.0,59,0.00,,SKC,0.00,VWS V14.01,2013-01-23 08:58:00,
2013-01-23 02:03:00,35.1,22.2,30.21,NNE,33,0.0,2.0,59,0.00,,SKC,0.00,VWS V14.01,2013-01-23 09:03:00,
2013-01-23 02:08:00,34.8,22.0,30.22,NNE,33,1.0,2.0,59,0.00,,SKC,0.00,VWS V14.01,2013-01-23 09:08:00,
2013-01-23 02:14:00,34.7,22.2,30.22,NNE,32,2.0,2.0,60,0.00,,SKC,0.00,VWS V14.01,2013-01-23 09:14:00,
2013-01-23 02:19:00,35.2,22.7,30.22,NE,39,1.0,3.0,60,0.00,,SKC,0.00,VWS V14.01,2013-01-23 09:19:00,
2013-01-23 02:24:00,35.2,22.3,30.22,NE,55,1.0,3.0,59,0.00,,SKC,0.00,VWS V14.01,2013-01-23 09:24:00,
2013-01-23 02:29:00,35.2,21.9,30.22,NE,41,2.0,3.0,58,0.00,,SKC,0.00,VWS V14.01,2013-01-23 09:29:00,
2013-01-23 02:34:00,35.4,22.1,30.21,ENE,71,2.0,2.0,58,0.00,,SKC,0.00,VWS V14.01,2013-01-23 09:34:00,
2013-01-23 02:40:00,35.8,22.1,30.21,NE,53,2.0,2.0,57,0.00,,SKC,0.00,VWS V14.01,2013-01-23 09:40:00,
2013-01-23 02:45:00,36.2,22.5,30.21,ENE,57,3.0,3.0,57,0.00,,SKC,0.00,VWS V14.01,2013-01-23 09:45:00,
2013-01-23 02:50:00,36.5,22.7,30.21,ENE,70,2.0,3.0,57,0.00,,SKC,0.00,VWS V14.01,2013-01-23 09:50:00,
2013-01-23 02:55:00,36.9,22.7,30.22,ESE,105,3.0,4.0,56,0.00,,SKC,0.00,VWS V14.01,2013-01-23 09:55:00,
2013-01-23 03:00:00,36.7,22.5,30.22,NE,51,1.0,2.0,56,0.00,,SKC,0.00,VWS V14.01,2013-01-23 10:00:00,
2013-01-23 03:05:00,36.6,22.4,30.22,NE,54,2.0,4.0,56,0.00,,SKC,0.00,VWS V14.01,2013-01-23 10:05:00,
2013-01-23 03:10:00,36.5,22.3,30.22,ENE,70,2.0,4.0,56,0.00,,SKC,0.00,VWS V14.01,2013-01-23 10:10:00,
2013-01-23 03:16:00,36.5,22.7,30.22,ENE,68,2.0,5.0,57,0.00,,SKC,0.00,VWS V14.01,2013-01-23 10:16:00,
2013-01-23 03:21:00,36.7,22.9,30.22,ENE,59,3.0,5.0,57,0.00,,SKC,0.00,VWS V14.01,2013-01-23 10:21:00,
2013-01-23 03:26:00,36.8,23.0,30.22,NE,40,2.0,5.0,57,0.00,,SKC,0.00,VWS V14.01,2013-01-23 10:26:00,
2013-01-23 03:31:00,36.6,22.8,30.22,NE,54,2.0,2.0,57,0.00,,SKC,0.00,VWS V14.01,2013-01-23 10:31:00,
2013-01-23 03:37:00,36.3,22.5,30.22,NE,56,1.0,2.0,57,0.00,,SKC,0.00,VWS V14.01,2013-01-23 10:37:00,
2013-01-23 03:42:00,35.7,22.8,30.22,NE,49,1.0,2.0,59,0.00,,SKC,0.00,VWS V14.01,2013-01-23 10:42:00,
2013-01-23 03:48:00,35.3,22.8,30.22,ENE,59,1.0,2.0,60,0.00,,SKC,0.00,VWS V14.01,2013-01-23 10:48:00,
2013-01-23 03:53:00,35.2,22.7,30.22,ENE,58,0.0,2.0,60,0.00,,SKC,0.00,VWS V14.01,2013-01-23 10:53:00,
2013-01-23 03:58:00,35.1,22.6,30.22,East,80,0.0,2.0,60,0.00,,SKC,0.00,VWS V14.01,2013-01-23 10:58:00,
2013-01-23 04:03:00,34.5,22.1,30.23,SE,127,1.0,2.0,60,0.00,,SKC,0.00,VWS V14.01,2013-01-23 11:03:00,
2013-01-23 04:08:00,33.9,21.9,30.22,SE,124,0.0,2.0,61,0.00,,SKC,0.00,VWS V14.01,2013-01-23 11:08:00,
2013-01-23 04:14:00,33.6,21.6,30.22,SE,124,1.0,2.0,61,0.00,,SKC,0.00,VWS V14.01,2013-01-23 11:14:00,
2013-01-23 04:20:00,33.5,21.9,30.22,SE,124,1.0,2.0,62,0.00,,SKC,0.00,VWS V14.01,2013-01-23 11:20:00,
2013-01-23 04:25:00,32.9,20.9,30.22,ESE,110,1.0,2.0,61,0.00,,SKC,0.00,VWS V14.01,2013-01-23 11:25:00,
2013-01-23 04:30:00,32.5,21.3,30.22,NE,35,1.0,2.0,63,0.00,,SKC,0.00,VWS V14.01,2013-01-23 11:30:00,
2013-01-23 04:35:00,32.7,21.9,30.22,NE,39,2.0,3.0,64,0.00,,SKC,0.00,VWS V14.01,2013-01-23 11:35:00,
2013-01-23 04:40:00,32.8,22.0,30.22,NE,36,2.0,3.0,64,0.00,,SKC,0.00,VWS V14.01,2013-01-23 11:40:00,
2013-01-23 04:45:00,33.0,21.8,30.23,NE,44,2.0,3.0,63,0.00,,SKC,0.00,VWS V14.01,2013-01-23 11:45:00,
2013-01-23 04:50:00,33.3,22.5,30.23,ENE,57,2.0,6.0,64,0.00,,SKC,0.00,VWS V14.01,2013-01-23 11:50:00,
2013-01-23 04:55:00,33.8,22.5,30.23,East,83,1.0,6.0,63,0.00,,SKC,0.00,VWS V14.01,2013-01-23 11:55:00,
2013-01-23 05:01:00,33.9,22.3,30.23,NE,51,1.0,1.0,62,0.00,,SKC,0.00,VWS V14.01,2013-01-23 12:01:00,
2013-01-23 05:06:00,33.7,22.1,30.22,East,91,2.0,2.0,62,0.00,,SKC,0.00,VWS V14.01,2013-01-23 12:06:00,
2013-01-23 05:11:00,33.5,22.3,30.23,ENE,61,1.0,2.0,63,0.00,,SKC,0.00,VWS V14.01,2013-01-23 12:11:00,
2013-01-23 05:16:00,33.6,22.4,30.23,East,95,2.0,2.0,63,0.00,,SKC,0.00,VWS V14.01,2013-01-23 12:16:00,
2013-01-23 05:21:00,33.8,22.9,30.23,NE,53,2.0,5.0,64,0.00,,SKC,0.00,VWS V14.01,2013-01-23 12:21:00,
2013-01-23 05:27:00,33.8,22.5,30.23,NE,56,1.0,5.0,63,0.00,,SKC,0.00,VWS V14.01,2013-01-23 12:27:00,
2013-01-23 05:32:00,33.8,22.5,30.23,ENE,58,2.0,2.0,63,0.00,,SKC,0.00,VWS V14.01,2013-01-23 12:32:00,
2013-01-23 05:37:00,33.7,22.8,30.22,NE,42,2.0,3.0,64,0.00,,SKC,0.00,VWS V14.01,2013-01-23 12:37:00,
2013-01-23 05:42:00,33.6,22.4,30.22,NE,56,3.0,3.0,63,0.00,,SKC,0.00,VWS V14.01,2013-01-23 12:42:00,
2013-01-23 05:47:00,33.3,22.5,30.22,ENE,72,1.0,3.0,64,0.00,,SKC,0.00,VWS V14.01,2013-01-23 12:47:00,
2013-01-23 05:52:00,33.1,22.3,30.23,East,83,1.0,3.0,64,0.00,,SKC,0.00,VWS V14.01,2013-01-23 12:52:00,
2013-01-23 05:57:00,32.9,22.4,30.23,ENE,65,1.0,3.0,65,0.00,,SKC,0.00,VWS V14.01,2013-01-23 12:57:00,
2013-01-23 06:03:00,32.7,22.2,30.23,ENE,57,3.0,3.0,65,0.00,,SKC,0.00,VWS V14.01,2013-01-23 13:03:00,
2013-01-23 06:08:00,32.4,22.3,30.24,ENE,58,2.0,3.0,66,0.00,,SKC,0.00,VWS V14.01,2013-01-23 13:08:00,
2013-01-23 06:13:00,32.5,22.4,30.24,ENE,70,3.0,3.0,66,0.00,,SKC,0.00,VWS V14.01,2013-01-23 13:13:00,
2013-01-23 06:18:00,32.8,22.7,30.24,NE,51,2.0,3.0,66,0.00,,SKC,0.00,VWS V14.01,2013-01-23 13:18:00,
2013-01-23 06:23:00,32.7,22.6,30.24,NE,49,4.0,4.0,66,0.00,,SKC,0.00,VWS V14.01,2013-01-23 13:23:00,
2013-01-23 06:28:00,32.7,22.6,30.24,NE,39,2.0,4.0,66,0.00,,SKC,0.00,VWS V14.01,2013-01-23 13:28:00,
2013-01-23 06:33:00,32.8,22.7,30.24,ENE,73,1.0,3.0,66,0.00,,SKC,0.00,VWS V14.01,2013-01-23 13:33:00,
2013-01-23 06:38:00,32.8,22.7,30.24,East,82,1.0,3.0,66,0.00,,SKC,0.00,VWS V14.01,2013-01-23 13:38:00,
2013-01-23 06:43:00,32.9,22.8,30.24,ENE,70,2.0,3.0,66,0.00,,SKC,0.00,VWS V14.01,2013-01-23 13:43:00,
2013-01-23 06:48:00,32.8,22.7,30.24,East,80,2.0,3.0,66,0.00,,SKC,0.00,VWS V14.01,2013-01-23 13:48:00,
2013-01-23 06:53:00,32.5,22.4,30.24,East,93,2.0,3.0,66,0.00,,SKC,0.00,VWS V14.01,2013-01-23 13:53:00,
2013-01-23 06:58:00,32.4,22.7,30.24,ENE,65,2.0,3.0,67,0.00,,SKC,0.00,VWS V14.01,2013-01-23 13:58:00,
2013-01-23 07:03:00,32.4,22.7,30.24,NE,55,2.0,3.0,67,0.00,,SKC,0.00,VWS V14.01,2013-01-23 14:03:00,
2013-01-23 07:08:00,32.5,22.8,30.24,NE,53,2.0,3.0,67,0.00,,SKC,0.00,VWS V14.01,2013-01-23 14:08:00,
2013-01-23 07:13:00,32.4,22.7,30.24,ENE,58,2.0,3.0,67,0.00,,SKC,0.00,VWS V14.01,2013-01-23 14:13:00,
2013-01-23 07:18:00,32.5,22.8,30.24,NE,54,4.0,4.0,67,0.00,,SKC,0.00,VWS V14.01,2013-01-23 14:18:00,
2013-01-23 07:23:00,32.6,22.9,30.25,East,82,2.0,4.0,67,0.00,,SKC,0.00,VWS V14.01,2013-01-23 14:23:00,
2013-01-23 07:29:00,32.6,22.5,30.25,NE,42,2.0,4.0,66,0.00,,SKC,0.00,VWS V14.01,2013-01-23 14:29:00,
2013-01-23 07:34:00,32.8,22.7,30.25,NE,39,3.0,4.0,66,0.00,,SKC,0.00,VWS V14.01,2013-01-23 14:34:00,
2013-01-23 07:39:00,32.9,22.8,30.25,NE,49,2.0,4.0,66,0.00,,SKC,0.00,VWS V14.01,2013-01-23 14:39:00,
2013-01-23 07:44:00,33.3,23.2,30.25,ENE,60,3.0,4.0,66,0.00,,SKC,0.00,VWS V14.01,2013-01-23 14:44:00,
2013-01-23 07:49:00,34.2,23.7,30.26,ENE,71,4.0,4.0,65,0.00,,SKC,0.00,VWS V14.01,2013-01-23 14:49:00,
2013-01-23 07:54:00,35.1,23.8,30.26,East,85,1.0,5.0,63,0.00,,SKC,0.00,VWS V14.01,2013-01-23 14:54:00,
2013-01-23 07:59:00,35.6,23.9,30.26,NE,44,4.0,6.0,62,0.00,,SKC,0.00,VWS V14.01,2013-01-23 14:59:00,
2013-01-23 08:04:00,36.3,24.1,30.26,NE,44,3.0,4.0,61,0.00,,SKC,0.00,VWS V14.01,2013-01-23 15:04:00,
2013-01-23 08:09:00,37.1,24.5,30.26,NE,49,2.0,7.0,60,0.00,,SKC,0.00,VWS V14.01,2013-01-23 15:09:00,
2013-01-23 08:14:00,37.6,24.6,30.26,ESE,106,4.0,7.0,59,0.00,,SKC,0.00,VWS V14.01,2013-01-23 15:14:00,
2013-01-23 08:19:00,37.6,24.6,30.26,East,82,3.0,7.0,59,0.00,,SKC,0.00,VWS V14.01,2013-01-23 15:19:00,
2013-01-23 08:24:00,37.4,24.4,30.26,East,93,4.0,7.0,59,0.00,,SKC,0.00,VWS V14.01,2013-01-23 15:24:00,
2013-01-23 08:29:00,37.6,24.2,30.26,ESE,103,3.0,7.0,58,0.00,,SKC,0.00,VWS V14.01,2013-01-23 15:29:00,
2013-01-23 08:34:00,38.5,24.2,30.26,ENE,63,2.0,5.0,56,0.00,,SKC,0.00,VWS V14.01,2013-01-23 15:34:00,
2013-01-23 08:39:00,39.6,24.8,30.27,ESE,122,3.0,5.0,55,0.00,,SKC,0.00,VWS V14.01,2013-01-23 15:39:00,
2013-01-23 08:44:00,40.9,25.1,30.27,East,91,4.0,5.0,53,0.00,,SKC,0.00,VWS V14.01,2013-01-23 15:44:00,
2013-01-23 08:49:00,42.2,25.4,30.27,ESE,114,2.0,5.0,51,0.00,,SKC,0.00,VWS V14.01,2013-01-23 15:49:00,
2013-01-23 08:54:00,43.9,26.0,30.27,ESE,108,1.0,5.0,49,0.00,,SKC,0.00,VWS V14.01,2013-01-23 15:54:00,
2013-01-23 08:59:00,45.2,26.2,30.27,ENE,70,1.0,5.0,47,0.00,,SKC,0.00,VWS V14.01,2013-01-23 15:59:00,
2013-01-23 09:04:00,46.3,26.1,30.27,ESE,120,3.0,6.0,45,0.00,,SKC,0.00,VWS V14.01,2013-01-23 16:04:00,
2013-01-23 09:09:00,47.1,26.3,30.27,ESE,106,4.0,6.0,44,0.00,,SKC,0.00,VWS V14.01,2013-01-23 16:09:00,
2013-01-23 09:15:00,47.8,26.4,30.27,ESE,110,5.0,6.0,43,0.00,,SKC,0.00,VWS V14.01,2013-01-23 16:15:00,
2013-01-23 09:20:00,48.0,26.0,30.27,ENE,70,3.0,6.0,42,0.00,,SKC,0.00,VWS V14.01,2013-01-23 16:20:00,
2013-01-23 09:25:00,48.2,26.2,30.27,East,85,3.0,6.0,42,0.00,,SKC,0.00,VWS V14.01,2013-01-23 16:25:00,
2013-01-23 09:30:00,49.0,26.9,30.27,East,99,4.0,6.0,42,0.00,,SKC,0.00,VWS V14.01,2013-01-23 16:30:00,
2013-01-23 09:35:00,49.9,27.1,30.27,SE,127,2.0,4.0,41,0.00,,SKC,0.00,VWS V14.01,2013-01-23 16:35:00,
2013-01-23 09:40:00,50.7,27.3,30.27,East,97,4.0,5.0,40,0.00,,SKC,0.00,VWS V14.01,2013-01-23 16:40:00,
2013-01-23 09:45:00,51.5,27.4,30.27,ENE,78,3.0,5.0,39,0.00,,SKC,0.00,VWS V14.01,2013-01-23 16:45:00,
2013-01-23 09:50:00,52.3,28.1,30.27,SE,133,2.0,5.0,39,0.00,,SKC,0.00,VWS V14.01,2013-01-23 16:50:00,
2013-01-23 09:55:00,53.0,27.4,30.27,East,97,3.0,5.0,37,0.00,,SKC,0.00,VWS V14.01,2013-01-23 16:55:00,
2013-01-23 10:00:00,53.6,28.0,30.27,ESE,120,2.0,2.0,37,0.00,,SKC,0.00,VWS V14.01,2013-01-23 17:00:00,
2013-01-23 10:05:00,54.3,27.9,30.27,East,98,3.0,4.0,36,0.00,,SKC,0.00,VWS V14.01,2013-01-23 17:05:00,
2013-01-23 10:10:00,54.8,28.4,30.28,ENE,77,3.0,5.0,36,0.00,,SKC,0.00,VWS V14.01,2013-01-23 17:10:00,
2013-01-23 10:15:00,55.5,28.3,30.27,East,98,3.0,5.0,35,0.00,,SKC,0.00,VWS V14.01,2013-01-23 17:15:00,
2013-01-23 10:20:00,56.1,28.1,30.27,ESE,110,5.0,5.0,34,0.00,,SKC,0.00,VWS V14.01,2013-01-23 17:20:00,
2013-01-23 10:25:00,56.9,28.1,30.27,SE,134,4.0,5.0,33,0.00,,SKC,0.00,VWS V14.01,2013-01-23 17:25:00,
2013-01-23 10:30:00,57.6,28.7,30.27,East,100,2.0,2.0,33,0.00,,SKC,0.00,VWS V14.01,2013-01-23 17:30:00,
2013-01-23 10:35:00,58.3,28.6,30.27,ESE,108,3.0,5.0,32,0.00,,SKC,0.00,VWS V14.01,2013-01-23 17:35:00,
2013-01-23 10:41:00,59.1,27.7,30.26,ESE,110,2.0,5.0,30,0.00,,SKC,0.00,VWS V14.01,2013-01-23 17:41:00,
2013-01-23 10:46:00,60.1,28.6,30.26,ESE,104,1.0,5.0,30,0.00,,SKC,0.00,VWS V14.01,2013-01-23 17:46:00,
2013-01-23 10:51:00,61.1,28.6,30.26,East,97,3.0,5.0,29,0.00,,SKC,0.00,VWS V14.01,2013-01-23 17:51:00,
2013-01-23 10:56:00,61.5,27.2,30.26,ESE,114,2.0,5.0,27,0.00,,SKC,0.00,VWS V14.01,2013-01-23 17:56:00,
2013-01-23 11:01:00,62.2,27.8,30.26,SSE,155,3.0,3.0,27,0.00,,SKC,0.00,VWS V14.01,2013-01-23 18:01:00,
2013-01-23 11:06:00,62.9,27.5,30.26,SSE,156,3.0,3.0,26,0.00,,SKC,0.00,VWS V14.01,2013-01-23 18:06:00,
2013-01-23 11:11:00,63.5,27.1,30.25,SE,134,2.0,4.0,25,0.00,,SKC,0.00,VWS V14.01,2013-01-23 18:11:00,
2013-01-23 11:16:00,64.0,26.5,30.25,SW,214,1.0,4.0,24,0.00,,SKC,0.00,VWS V14.01,2013-01-23 18:16:00,
2013-01-23 11:21:00,64.4,26.9,30.25,ESE,114,2.0,4.0,24,0.00,,SKC,0.00,VWS V14.01,2013-01-23 18:21:00,
2013-01-23 11:26:00,64.9,26.2,30.25,East,94,1.0,4.0,23,0.00,,SKC,0.00,VWS V14.01,2013-01-23 18:26:00,
2013-01-23 11:31:00,65.9,26.0,30.24,WSW,240,0.0,2.0,22,0.00,,SKC,0.00,VWS V14.01,2013-01-23 18:31:00,
2013-01-23 11:36:00,66.6,25.5,30.24,East,85,2.0,2.0,21,0.00,,SKC,0.00,VWS V14.01,2013-01-23 18:36:00,
2013-01-23 11:41:00,67.1,25.9,30.23,NW,310,1.0,2.0,21,0.00,,SKC,0.00,VWS V14.01,2013-01-23 18:41:00,
2013-01-23 11:46:00,67.3,26.1,30.23,NNE,26,0.0,2.0,21,0.00,,SKC,0.00,VWS V14.01,2013-01-23 18:46:00,
2013-01-23 11:51:00,68.5,25.9,30.22,SW,231,1.0,3.0,20,0.00,,SKC,0.00,VWS V14.01,2013-01-23 18:51:00,
2013-01-23 11:56:00,69.5,25.5,30.22,West,262,2.0,4.0,19,0.00,,SKC,0.00,VWS V14.01,2013-01-23 18:56:00,
2013-01-23 12:01:00,70.0,25.9,30.21,NE,37,0.0,1.0,19,0.00,,SKC,0.00,VWS V14.01,2013-01-23 19:01:00,
2013-01-23 12:06:00,70.4,26.2,30.21,WSW,258,3.0,3.0,19,0.00,,SKC,0.00,VWS V14.01,2013-01-23 19:06:00,
2013-01-23 12:12:00,70.3,26.1,30.21,WSW,240,1.0,4.0,19,0.00,,SKC,0.00,VWS V14.01,2013-01-23 19:12:00,
2013-01-23 12:17:00,71.2,25.6,30.20,NE,53,3.0,4.0,18,0.00,,SKC,0.00,VWS V14.01,2013-01-23 19:17:00,
2013-01-23 12:22:00,71.7,26.0,30.20,West,268,1.0,4.0,18,0.00,,SKC,0.00,VWS V14.01,2013-01-23 19:22:00,
2013-01-23 12:27:00,72.3,26.5,30.19,SSW,208,3.0,4.0,18,0.00,,SKC,0.00,VWS V14.01,2013-01-23 19:27:00,
2013-01-23 12:32:00,72.3,26.5,30.19,WSW,250,4.0,4.0,18,0.00,,SKC,0.00,VWS V14.01,2013-01-23 19:32:00,
2013-01-23 12:37:00,72.3,26.5,30.19,SSW,198,3.0,4.0,18,0.00,,SKC,0.00,VWS V14.01,2013-01-23 19:37:00,
2013-01-23 12:42:00,72.3,26.5,30.18,WNW,284,2.0,4.0,18,0.00,,SKC,0.00,VWS V14.01,2013-01-23 19:42:00,
2013-01-23 12:47:00,73.2,25.8,30.18,SW,217,1.0,4.0,17,0.00,,SKC,0.00,VWS V14.01,2013-01-23 19:47:00,
2013-01-23 12:52:00,74.5,26.9,30.18,WNW,298,3.0,4.0,17,0.00,,SKC,0.00,VWS V14.01,2013-01-23 19:52:00,
2013-01-23 12:57:00,75.2,26.0,30.17,NE,34,3.0,4.0,16,0.00,,SKC,0.00,VWS V14.01,2013-01-23 19:57:00,
2013-01-23 13:02:00,74.8,27.1,30.17,NNE,16,3.0,3.0,17,0.00,,SKC,0.00,VWS V14.01,2013-01-23 20:02:00,
2013-01-23 13:07:00,75.6,26.3,30.17,ESE,102,2.0,3.0,16,0.00,,SKC,0.00,VWS V14.01,2013-01-23 20:07:00,
2013-01-23 13:12:00,76.3,26.9,30.17,South,172,3.0,4.0,16,0.00,,SKC,0.00,VWS V14.01,2013-01-23 20:12:00,
2013-01-23 13:17:00,76.2,26.8,30.16,SSE,153,4.0,4.0,16,0.00,,SKC,0.00,VWS V14.01,2013-01-23 20:17:00,
2013-01-23 13:22:00,75.7,27.8,30.16,SSE,165,3.0,8.0,17,0.00,,SKC,0.00,VWS V14.01,2013-01-23 20:22:00,
2013-01-23 13:27:00,75.1,27.4,30.16,ESE,122,4.0,8.0,17,0.00,,SKC,0.00,VWS V14.01,2013-01-23 20:27:00,
2013-01-23 13:32:00,75.0,27.3,30.16,SE,141,5.0,5.0,17,0.00,,SKC,0.00,VWS V14.01,2013-01-23 20:32:00,
2013-01-23 13:38:00,74.9,27.2,30.15,SSE,163,3.0,5.0,17,0.00,,SKC,0.00,VWS V14.01,2013-01-23 20:38:00,
2013-01-23 13:43:00,75.5,27.7,30.15,SSW,211,1.0,5.0,17,0.00,,SKC,0.00,VWS V14.01,2013-01-23 20:43:00,
2013-01-23 13:48:00,76.1,26.7,30.14,South,185,2.0,5.0,16,0.00,,SKC,0.00,VWS V14.01,2013-01-23 20:48:00,
2013-01-23 13:53:00,76.4,26.9,30.14,NNW,333,1.0,5.0,16,0.00,,SKC,0.00,VWS V14.01,2013-01-23 20:53:00,
2013-01-23 13:58:00,75.6,27.8,30.14,NE,56,1.0,6.0,17,0.00,,SKC,0.00,VWS V14.01,2013-01-23 20:58:00,
2013-01-23 14:03:00,75.7,27.8,30.14,ESE,118,2.0,2.0,17,0.00,,SKC,0.00,VWS V14.01,2013-01-23 21:03:00,
2013-01-23 14:08:00,76.4,28.4,30.13,ENE,68,1.0,4.0,17,0.00,,SKC,0.00,VWS V14.01,2013-01-23 21:08:00,
2013-01-23 14:13:00,76.0,28.1,30.13,ENE,65,1.0,7.0,17,0.00,,SKC,0.00,VWS V14.01,2013-01-23 21:13:00,
2013-01-23 14:18:00,76.1,28.2,30.13,NE,45,3.0,7.0,17,0.00,,SKC,0.00,VWS V14.01,2013-01-23 21:18:00,
2013-01-23 14:23:00,75.7,27.8,30.13,East,86,2.0,8.0,17,0.00,,SKC,0.00,VWS V14.01,2013-01-23 21:23:00,
2013-01-23 14:28:00,74.8,27.1,30.13,ENE,66,1.0,8.0,17,0.00,,SKC,0.00,VWS V14.01,2013-01-23 21:28:00,
2013-01-23 14:33:00,74.6,28.3,30.13,SSW,212,1.0,2.0,18,0.00,,SKC,0.00,VWS V14.01,2013-01-23 21:33:00,
2013-01-23 14:38:00,74.6,28.3,30.13,ESE,113,0.0,2.0,18,0.00,,SKC,0.00,VWS V14.01,2013-01-23 21:38:00,
2013-01-23 14:43:00,74.8,28.5,30.13,ESE,110,4.0,5.0,18,0.00,,SKC,0.00,VWS V14.01,2013-01-23 21:43:00,
2013-01-23 14:48:00,74.4,28.2,30.13,ENE,63,2.0,5.0,18,0.00,,SKC,0.00,VWS V14.01,2013-01-23 21:48:00,
2013-01-23 14:53:00,74.2,28.0,30.13,East,98,1.0,5.0,18,0.00,,SKC,0.00,VWS V14.01,2013-01-23 21:53:00,
2013-01-23 14:59:00,74.0,27.9,30.14,ENE,57,2.0,5.0,18,0.00,,SKC,0.00,VWS V14.01,2013-01-23 21:59:00,
2013-01-23 15:04:00,74.0,27.9,30.14,SE,124,2.0,5.0,18,0.00,,SKC,0.00,VWS V14.01,2013-01-23 22:04:00,
2013-01-23 15:09:00,74.0,27.9,30.13,NE,56,4.0,7.0,18,0.00,,SKC,0.00,VWS V14.01,2013-01-23 22:09:00,
2013-01-23 15:14:00,73.6,27.5,30.13,ESE,121,2.0,7.0,18,0.00,,SKC,0.00,VWS V14.01,2013-01-23 22:14:00,
2013-01-23 15:19:00,73.7,27.6,30.13,ESE,123,3.0,7.0,18,0.00,,SKC,0.00,VWS V14.01,2013-01-23 22:19:00,
2013-01-23 15:24:00,73.8,27.7,30.13,NE,46,3.0,7.0,18,0.00,,SKC,0.00,VWS V14.01,2013-01-23 22:24:00,
2013-01-23 15:29:00,74.1,27.9,30.13,ENE,66,2.0,7.0,18,0.00,,SKC,0.00,VWS V14.01,2013-01-23 22:29:00,
2013-01-23 15:34:00,74.7,28.4,30.13,WNW,282,2.0,2.0,18,0.00,,SKC,0.00,VWS V14.01,2013-01-23 22:34:00,
2013-01-23 15:39:00,75.3,27.5,30.13,NE,37,4.0,8.0,17,0.00,,SKC,0.00,VWS V14.01,2013-01-23 22:39:00,
2013-01-23 15:44:00,75.3,27.5,30.13,North,11,1.0,8.0,17,0.00,,SKC,0.00,VWS V14.01,2013-01-23 22:44:00,
2013-01-23 15:49:00,75.1,27.4,30.13,NE,55,3.0,8.0,17,0.00,,SKC,0.00,VWS V14.01,2013-01-23 22:49:00,
2013-01-23 15:54:00,74.8,28.5,30.13,ENE,60,5.0,8.0,18,0.00,,SKC,0.00,VWS V14.01,2013-01-23 22:54:00,
2013-01-23 16:00:00,74.7,28.4,30.13,ENE,57,5.0,8.0,18,0.00,,SKC,0.00,VWS V14.01,2013-01-23 23:00:00,
2013-01-23 16:05:00,74.7,28.4,30.12,SE,146,2.0,5.0,18,0.00,,SKC,0.00,VWS V14.01,2013-01-23 23:05:00,
2013-01-23 16:10:00,74.9,28.6,30.12,ESE,102,3.0,5.0,18,0.00,,SKC,0.00,VWS V14.01,2013-01-23 23:10:00,
2013-01-23 16:15:00,75.1,27.4,30.12,East,80,4.0,5.0,17,0.00,,SKC,0.00,VWS V14.01,2013-01-23 23:15:00,
2013-01-23 16:20:00,74.9,27.2,30.12,East,90,3.0,5.0,17,0.00,,SKC,0.00,VWS V14.01,2013-01-23 23:20:00,
2013-01-23 16:25:00,75.2,28.8,30.12,NE,40,5.0,5.0,18,0.00,,SKC,0.00,VWS V14.01,2013-01-23 23:25:00,
2013-01-23 16:30:00,74.8,28.5,30.12,ENE,59,3.0,5.0,18,0.00,,SKC,0.00,VWS V14.01,2013-01-23 23:30:00,
2013-01-23 16:35:00,74.5,28.2,30.12,NE,34,3.0,6.0,18,0.00,,SKC,0.00,VWS V14.01,2013-01-23 23:35:00,
2013-01-23 16:40:00,74.2,28.0,30.12,NNE,23,4.0,6.0,18,0.00,,SKC,0.00,VWS V14.01,2013-01-23 23:40:00,
2013-01-23 16:45:00,74.3,28.1,30.12,ENE,71,1.0,6.0,18,0.00,,SKC,0.00,VWS V14.01,2013-01-23 23:45:00,
2013-01-23 16:50:00,74.2,29.3,30.12,NNE,19,3.0,6.0,19,0.00,,SKC,0.00,VWS V14.01,2013-01-23 23:50:00,
2013-01-23 16:55:00,74.0,27.9,30.12,ENE,63,2.0,6.0,18,0.00,,SKC,0.00,VWS V14.01,2013-01-23 23:55:00,
2013-01-23 17:00:00,73.8,27.7,30.12,NE,40,3.0,3.0,18,0.00,,SKC,0.00,VWS V14.01,2013-01-24 00:00:00,
2013-01-23 17:05:00,73.5,27.4,30.12,NE,44,3.0,5.0,18,0.00,,SKC,0.00,VWS V14.01,2013-01-24 00:05:00,
2013-01-23 17:10:00,73.4,27.4,30.12,NE,45,2.0,5.0,18,0.00,,SKC,0.00,VWS V14.01,2013-01-24 00:10:00,
2013-01-23 17:15:00,73.1,27.1,30.12,East,84,2.0,6.0,18,0.00,,SKC,0.00,VWS V14.01,2013-01-24 00:15:00,
2013-01-23 17:20:00,73.0,27.0,30.12,East,84,1.0,6.0,18,0.00,,SKC,0.00,VWS V14.01,2013-01-24 00:20:00,
2013-01-23 17:26:00,72.6,26.7,30.12,ENE,70,1.0,6.0,18,0.00,,SKC,0.00,VWS V14.01,2013-01-24 00:26:00,
2013-01-23 17:31:00,71.9,27.4,30.12,ENE,60,1.0,3.0,19,0.00,,SKC,0.00,VWS V14.01,2013-01-24 00:31:00,
2013-01-23 17:36:00,71.1,28.0,30.12,ENE,60,2.0,3.0,20,0.00,,SKC,0.00,VWS V14.01,2013-01-24 00:36:00,
2013-01-23 17:41:00,70.2,27.3,30.12,NE,41,2.0,4.0,20,0.00,,SKC,0.00,VWS V14.01,2013-01-24 00:41:00,
2013-01-23 17:46:00,69.4,27.8,30.13,NE,50,1.0,4.0,21,0.00,,SKC,0.00,VWS V14.01,2013-01-24 00:46:00,
2013-01-23 17:51:00,68.9,27.4,30.13,NE,51,1.0,4.0,21,0.00,,SKC,0.00,VWS V14.01,2013-01-24 00:51:00,
2013-01-23 17:56:00,68.2,27.9,30.13,NE,51,1.0,4.0,22,0.00,,SKC,0.00,VWS V14.01,2013-01-24 00:56:00,
2013-01-23 18:01:00,66.8,27.8,30.13,NE,51,0.0,0.0,23,0.00,,SKC,0.00,VWS V14.01,2013-01-24 01:01:00,
2013-01-23 18:06:00,64.9,27.3,30.13,NE,51,0.0,0.0,24,0.00,,SKC,0.00,VWS V14.01,2013-01-24 01:06:00,
2013-01-23 18:11:00,63.7,28.2,30.13,NE,51,0.0,1.0,26,0.00,,SKC,0.00,VWS V14.01,2013-01-24 01:11:00,
2013-01-23 18:16:00,62.7,30.0,30.14,NE,51,1.0,1.0,29,0.00,,SKC,0.00,VWS V14.01,2013-01-24 01:16:00,
2013-01-23 18:21:00,61.7,31.6,30.14,NE,51,0.0,1.0,32,0.00,,SKC,0.00,VWS V14.01,2013-01-24 01:21:00,
2013-01-23 18:26:00,60.8,30.8,30.14,NE,51,0.0,1.0,32,0.00,,SKC,0.00,VWS V14.01,2013-01-24 01:26:00,
2013-01-23 18:32:00,59.5,29.6,30.14,NE,51,0.0,0.0,32,0.00,,SKC,0.00,VWS V14.01,2013-01-24 01:32:00,
2013-01-23 18:37:00,58.1,28.4,30.14,NE,51,0.0,0.0,32,0.00,,SKC,0.00,VWS V14.01,2013-01-24 01:37:00,
2013-01-23 18:42:00,56.8,28.0,30.14,NE,51,0.0,0.0,33,0.00,,SKC,0.00,VWS V14.01,2013-01-24 01:42:00,
2013-01-23 18:47:00,55.6,26.2,30.15,NE,51,0.0,0.0,32,0.00,,SKC,0.00,VWS V14.01,2013-01-24 01:47:00,
2013-01-23 18:52:00,54.9,28.5,30.15,NE,51,0.0,0.0,36,0.00,,SKC,0.00,VWS V14.01,2013-01-24 01:52:00,
2013-01-23 18:57:00,54.4,28.0,30.15,NE,52,0.0,0.0,36,0.00,,SKC,0.00,VWS V14.01,2013-01-24 01:57:00,
2013-01-23 19:02:00,53.9,27.6,30.15,NE,52,0.0,0.0,36,0.00,,SKC,0.00,VWS V14.01,2013-01-24 02:02:00,
2013-01-23 19:07:00,53.4,26.5,30.15,NE,52,0.0,1.0,35,0.00,,SKC,0.00,VWS V14.01,2013-01-24 02:07:00,
2013-01-23 19:12:00,53.8,26.8,30.15,ENE,57,1.0,1.0,35,0.00,,SKC,0.00,VWS V14.01,2013-01-24 02:12:00,
2013-01-23 19:17:00,54.1,26.4,30.15,SE,131,1.0,2.0,34,0.00,,SKC,0.00,VWS V14.01,2013-01-24 02:17:00,
2013-01-23 19:22:00,53.7,26.0,30.15,SE,131,0.0,2.0,34,0.00,,SKC,0.00,VWS V14.01,2013-01-24 02:22:00,
2013-01-23 19:27:00,53.5,26.5,30.15,SE,131,1.0,2.0,35,0.00,,SKC,0.00,VWS V14.01,2013-01-24 02:27:00,
2013-01-23 19:32:00,53.6,25.9,30.15,SE,131,0.0,0.0,34,0.00,,SKC,0.00,VWS V14.01,2013-01-24 02:32:00,
2013-01-23 19:37:00,53.7,26.0,30.15,SE,124,0.0,1.0,34,0.00,,SKC,0.00,VWS V14.01,2013-01-24 02:37:00,
2013-01-23 19:43:00,53.5,25.8,30.16,SE,124,0.0,1.0,34,0.00,,SKC,0.00,VWS V14.01,2013-01-24 02:43:00,
2013-01-23 19:48:00,53.6,25.9,30.15,ESE,122,1.0,2.0,34,0.00,,SKC,0.00,VWS V14.01,2013-01-24 02:48:00,
2013-01-23 19:53:00,54.7,26.2,30.16,East,86,2.0,3.0,33,0.00,,SKC,0.00,VWS V14.01,2013-01-24 02:53:00,
2013-01-23 19:58:00,55.7,26.3,30.16,East,101,3.0,3.0,32,0.00,,SKC,0.00,VWS V14.01,2013-01-24 02:58:00,
2013-01-23 20:03:00,55.9,26.5,30.16,NE,52,2.0,6.0,32,0.00,,SKC,0.00,VWS V14.01,2013-01-24 03:03:00,
2013-01-23 20:08:00,56.0,26.6,30.16,ENE,74,1.0,6.0,32,0.00,,SKC,0.00,VWS V14.01,2013-01-24 03:08:00,
2013-01-23 20:13:00,56.2,26.0,30.16,East,91,1.0,6.0,31,0.00,,SKC,0.00,VWS V14.01,2013-01-24 03:13:00,
2013-01-23 20:18:00,55.7,26.3,30.16,ESE,104,2.0,6.0,32,0.00,,SKC,0.00,VWS V14.01,2013-01-24 03:18:00,
2013-01-23 20:23:00,55.3,26.0,30.16,ENE,70,1.0,6.0,32,0.00,,SKC,0.00,VWS V14.01,2013-01-24 03:23:00,
2013-01-23 20:28:00,54.1,25.6,30.17,ENE,60,1.0,6.0,33,0.00,,SKC,0.00,VWS V14.01,2013-01-24 03:28:00,
2013-01-23 20:33:00,53.3,26.4,30.17,ENE,60,0.0,2.0,35,0.00,,SKC,0.00,VWS V14.01,2013-01-24 03:33:00,
2013-01-23 20:38:00,52.5,26.3,30.17,ENE,60,0.0,2.0,36,0.00,,SKC,0.00,VWS V14.01,2013-01-24 03:38:00,
2013-01-23 20:43:00,51.5,25.5,30.17,East,81,1.0,2.0,36,0.00,,SKC,0.00,VWS V14.01,2013-01-24 03:43:00,
2013-01-23 20:49:00,50.3,25.7,30.17,East,82,0.0,2.0,38,0.00,,SKC,0.00,VWS V14.01,2013-01-24 03:49:00,
2013-01-23 20:54:00,49.4,26.1,30.17,East,82,0.0,2.0,40,0.00,,SKC,0.00,VWS V14.01,2013-01-24 03:54:00,
2013-01-23 20:59:00,49.3,26.0,30.18,NE,56,2.0,2.0,40,0.00,,SKC,0.00,VWS V14.01,2013-01-24 03:59:00,
2013-01-23 21:04:00,49.7,26.4,30.18,NE,53,1.0,2.0,40,0.00,,SKC,0.00,VWS V14.01,2013-01-24 04:04:00,
2013-01-23 21:09:00,49.7,26.4,30.18,NE,43,2.0,2.0,40,0.00,,SKC,0.00,VWS V14.01,2013-01-24 04:09:00,
2013-01-23 21:14:00,49.9,26.6,30.18,NE,35,2.0,2.0,40,0.00,,SKC,0.00,VWS V14.01,2013-01-24 04:14:00,
2013-01-23 21:19:00,49.9,26.6,30.18,NE,37,2.0,3.0,40,0.00,,SKC,0.00,VWS V14.01,2013-01-24 04:19:00,
2013-01-23 21:24:00,49.7,27.0,30.18,NE,47,2.0,3.0,41,0.00,,SKC,0.00,VWS V14.01,2013-01-24 04:24:00,
2013-01-23 21:29:00,49.4,26.1,30.18,NE,37,2.0,3.0,40,0.00,,SKC,0.00,VWS V14.01,2013-01-24 04:29:00,
2013-01-23 21:34:00,49.4,26.7,30.18,NE,46,2.0,3.0,41,0.00,,SKC,0.00,VWS V14.01,2013-01-24 04:34:00,
2013-01-23 21:40:00,49.6,25.7,30.18,ESE,118,2.0,3.0,39,0.00,,SKC,0.00,VWS V14.01,2013-01-24 04:40:00,
2013-01-23 21:45:00,49.3,26.0,30.19,ENE,73,1.0,3.0,40,0.00,,SKC,0.00,VWS V14.01,2013-01-24 04:45:00,
2013-01-23 21:50:00,49.2,25.9,30.19,East,81,3.0,3.0,40,0.00,,SKC,0.00,VWS V14.01,2013-01-24 04:50:00,
2013-01-23 21:55:00,48.8,25.6,30.19,NE,55,3.0,3.0,40,0.00,,SKC,0.00,VWS V14.01,2013-01-24 04:55:00,
2013-01-23 22:00:00,48.5,25.3,30.19,ENE,58,4.0,4.0,40,0.00,,SKC,0.00,VWS V14.01,2013-01-24 05:00:00,
2013-01-23 22:03:00,48.3,25.1,30.19,East,80,1.0,3.0,40,0.00,,SKC,0.00,VWS V14.01,2013-01-24 05:03:00,
2013-01-23 22:06:00,48.0,24.9,30.19,NE,37,2.0,3.0,40,0.00,,SKC,0.00,VWS V14.01,2013-01-24 05:06:00,
2013-01-23 22:11:00,47.8,25.8,30.19,NE,37,2.0,3.0,42,0.00,,SKC,0.00,VWS V14.01,2013-01-24 05:11:00,
2013-01-23 22:16:00,47.4,26.0,30.19,NE,34,2.0,3.0,43,0.00,,SKC,0.00,VWS V14.01,2013-01-24 05:16:00,
2013-01-23 22:21:00,47.2,25.9,30.20,ENE,60,2.0,5.0,43,0.00,,SKC,0.00,VWS V14.01,2013-01-24 05:21:00,
2013-01-23 22:27:00,47.2,25.9,30.20,NE,53,2.0,5.0,43,0.00,,SKC,0.00,VWS V14.01,2013-01-24 05:27:00,
2013-01-23 22:32:00,47.7,25.8,30.20,NE,54,3.0,4.0,42,0.00,,SKC,0.00,VWS V14.01,2013-01-24 05:32:00,
2013-01-23 22:37:00,47.9,25.9,30.20,NE,45,4.0,5.0,42,0.00,,SKC,0.00,VWS V14.01,2013-01-24 05:37:00,
2013-01-23 22:42:00,47.9,25.9,30.20,NE,55,4.0,5.0,42,0.00,,SKC,0.00,VWS V14.01,2013-01-24 05:42:00,
2013-01-23 22:47:00,47.7,25.8,30.20,NE,55,4.0,5.0,42,0.00,,SKC,0.00,VWS V14.01,2013-01-24 05:47:00,
2013-01-23 22:52:00,47.5,25.6,30.20,NE,49,3.0,5.0,42,0.00,,SKC,0.00,VWS V14.01,2013-01-24 05:52:00,
2013-01-23 22:57:00,47.1,25.8,30.20,NE,46,6.0,6.0,43,0.00,,SKC,0.00,VWS V14.01,2013-01-24 05:57:00,
2013-01-23 23:02:00,46.8,25.5,30.20,NE,49,3.0,3.0,43,0.00,,SKC,0.00,VWS V14.01,2013-01-24 06:02:00,
2013-01-23 23:07:00,46.4,25.7,30.20,ENE,59,4.0,4.0,44,0.00,,SKC,0.00,VWS V14.01,2013-01-24 06:07:00,
2013-01-23 23:12:00,46.0,25.3,30.20,ENE,58,2.0,4.0,44,0.00,,SKC,0.00,VWS V14.01,2013-01-24 06:12:00,
2013-01-23 23:17:00,45.9,25.8,30.20,ESE,109,3.0,4.0,45,0.00,,SKC,0.00,VWS V14.01,2013-01-24 06:17:00,
2013-01-23 23:22:00,45.7,25.6,30.20,NE,40,4.0,4.0,45,0.00,,SKC,0.00,VWS V14.01,2013-01-24 06:22:00,
2013-01-23 23:27:00,45.5,25.9,30.20,NE,52,3.0,4.0,46,0.00,,SKC,0.00,VWS V14.01,2013-01-24 06:27:00,
2013-01-23 23:32:00,45.7,26.1,30.20,NE,54,4.0,4.0,46,0.00,,SKC,0.00,VWS V14.01,2013-01-24 06:32:00,
2013-01-23 23:38:00,45.8,26.2,30.20,ENE,68,4.0,6.0,46,0.00,,SKC,0.00,VWS V14.01,2013-01-24 06:38:00,
2013-01-23 23:43:00,45.9,26.3,30.20,NE,53,5.0,6.0,46,0.00,,SKC,0.00,VWS V14.01,2013-01-24 06:43:00,
2013-01-23 23:48:00,45.8,26.2,30.20,ENE,65,3.0,6.0,46,0.00,,SKC,0.00,VWS V14.01,2013-01-24 06:48:00,
2013-01-23 23:53:00,45.4,25.9,30.21,NE,55,3.0,6.0,46,0.00,,SKC,0.00,VWS V14.01,2013-01-24 06:53:00,
2013-01-23 23:58:00,45.2,26.2,30.21,NE,55,3.0,6.0,47,0.00,,SKC,0.00,VWS V14.01,2013-01-24 06:58:00,